Weather History for Wildwood, NJ

Change the Weather History Date:

Friday, November 16, 2012

  Actual Average Record
Temperature  
Mean Temperature 40 °F -  
Max Temperature 48 °F 52 °F 69 °F (2001)
Min Temperature 33 °F 38 °F 26 °F (1996)
Degree Days  
Heating Degree Days 24    
Moisture  
Dew Point 29 °F    
Average Humidity 64    
Maximum Humidity 81    
Minimum Humidity 40    
Precipitation  
Precipitation 0.00 in - - ()
Sea Level Pressure  
Sea Level Pressure 30.31 in    
Wind  
Wind Speed 5 mph (North)    
Max Wind Speed 10 mph    
Max Gust Speed -    
Visibility 10 miles    
Events      
Averages and records for this station are not official NWS values.
T = Trace of Precipitation, MM = Missing Value Source: NWS Daily Summary

Daily Weather History Graph

Daily Weather History Graph

Search for Another Location

Airport:

Trip Planner

Search our weather history database for the weather conditions in past years. The results will help you decide how hot, cold, wet, or windy it might be!

Date:

Astronomy

Nov. 16, 2012 Rise Set
Actual Time 6:44 AM EST 4:44 PM EST
Civil Twilight 6:15 AM EST 5:13 PM EST
Nautical Twilight 5:43 AM EST 5:45 PM EST
Astronomical Twilight 5:11 AM EST 6:17 PM EST
Moon 9:36 AM EST (11/16) 7:41 PM EST (11/16)
Length of Visible Light 10h 57m
Length of Day
10h 00m
Waxing Crescent, 11% of the Moon is Illuminated
Nov 16
Waxing Crescent
Nov 20
First Quarter
Nov 28
Full
Dec 6
Last Quarter
Dec 13
New

Hourly Weather History & Observations

Time (EST) Temp. Windchill Dew Point Humidity Pressure Visibility Wind Dir Wind Speed Gust Speed Precip Events Conditions
12:15 AM 39.2 °F 37.0 °F 33.8 °F 81% 30.25 in 10.0 mi North 3.5 mph - N/A   Clear
12:35 AM 39.2 °F 35.0 °F 33.8 °F 81% 30.25 in 10.0 mi North 5.8 mph - N/A   Clear
12:55 AM 39.2 °F 37.0 °F 33.8 °F 81% 30.25 in 10.0 mi NNW 3.5 mph - N/A   Clear
1:15 AM 39.2 °F 35.9 °F 33.8 °F 81% 30.26 in 10.0 mi North 4.6 mph - N/A   Clear
1:35 AM 39.2 °F 35.0 °F 33.8 °F 81% 30.26 in 10.0 mi North 5.8 mph - N/A   Clear
1:55 AM 39.2 °F 35.9 °F 33.8 °F 81% 30.27 in 10.0 mi NNW 4.6 mph - N/A   Clear
2:15 AM 41.0 °F 38.0 °F 33.8 °F 76% 30.27 in 10.0 mi North 4.6 mph - N/A   Mostly Cloudy
2:35 AM 41.0 °F 38.0 °F 33.8 °F 76% 30.27 in 10.0 mi North 4.6 mph - N/A   Mostly Cloudy
2:55 AM 41.0 °F 36.4 °F 32.0 °F 70% 30.27 in 10.0 mi North 6.9 mph - N/A   Partly Cloudy
3:15 AM 39.2 °F 33.0 °F 30.2 °F 70% 30.25 in 10.0 mi North 9.2 mph - N/A   Clear
3:35 AM 39.2 °F 34.2 °F 30.2 °F 70% 30.25 in 10.0 mi North 6.9 mph - N/A   Scattered Clouds
3:55 AM 39.2 °F 35.0 °F 30.2 °F 70% 30.26 in 10.0 mi North 5.8 mph - N/A   Scattered Clouds
4:15 AM 39.2 °F 33.0 °F 30.2 °F 70% 30.27 in 10.0 mi North 9.2 mph - N/A   Partly Cloudy
4:35 AM 39.2 °F 33.6 °F 30.2 °F 70% 30.26 in 10.0 mi North 8.1 mph - N/A   Clear
4:55 AM 39.2 °F 33.0 °F 30.2 °F 70% 30.26 in 10.0 mi North 9.2 mph - N/A   Clear
5:15 AM 39.2 °F 33.6 °F 30.2 °F 70% 30.26 in 10.0 mi North 8.1 mph - N/A   Scattered Clouds
5:35 AM 39.2 °F 33.0 °F 30.2 °F 70% 30.26 in 10.0 mi North 9.2 mph - N/A   Scattered Clouds
5:55 AM 39.2 °F 33.0 °F 30.2 °F 70% 30.27 in 10.0 mi North 9.2 mph - N/A   Clear
6:15 AM 39.2 °F 35.0 °F 30.2 °F 70% 30.27 in 10.0 mi North 5.8 mph - N/A   Clear
6:35 AM 39.2 °F 35.0 °F 30.2 °F 70% 30.27 in 10.0 mi North 5.8 mph - N/A   Partly Cloudy
6:55 AM 39.2 °F 35.9 °F 30.2 °F 70% 30.28 in 10.0 mi North 4.6 mph - N/A   Scattered Clouds
7:15 AM 39.2 °F 35.9 °F 30.2 °F 70% 30.28 in 10.0 mi NNW 4.6 mph - N/A   Partly Cloudy
7:35 AM 39.2 °F 34.2 °F 30.2 °F 70% 30.29 in 10.0 mi NNW 6.9 mph - N/A   Partly Cloudy
7:55 AM 39.2 °F 35.0 °F 30.2 °F 70% 30.29 in 10.0 mi North 5.8 mph - N/A   Clear
8:15 AM 39.2 °F 34.2 °F 30.2 °F 70% 30.29 in 10.0 mi North 6.9 mph - N/A   Clear
8:35 AM 41.0 °F 35.8 °F 30.2 °F 65% 30.29 in 10.0 mi North 8.1 mph - N/A   Clear
8:55 AM 39.2 °F 33.0 °F 30.2 °F 70% 30.29 in 10.0 mi North 9.2 mph - N/A   Clear
9:15 AM 41.0 °F 35.8 °F 28.4 °F 61% 30.29 in 10.0 mi North 8.1 mph - N/A   Partly Cloudy
9:35 AM 41.0 °F 38.0 °F 28.4 °F 61% 30.29 in 10.0 mi North 4.6 mph - N/A   Clear
9:55 AM 41.0 °F 36.4 °F 28.4 °F 61% 30.30 in 10.0 mi NNW 6.9 mph - N/A   Mostly Cloudy
10:15 AM 41.0 °F 39.0 °F 28.4 °F 61% 30.31 in 10.0 mi NNW 3.5 mph - N/A   Overcast
10:35 AM 42.8 °F 40.1 °F 28.4 °F 57% 30.32 in 10.0 mi NNW 4.6 mph - N/A   Mostly Cloudy
10:55 AM 44.6 °F 39.7 °F 28.4 °F 53% 30.31 in 10.0 mi North 9.2 mph - N/A   Partly Cloudy
11:15 AM 46.4 °F 41.5 °F 30.2 °F 53% 30.30 in 10.0 mi North 10.4 mph - N/A   Clear
11:35 AM 46.4 °F 42.4 °F 30.2 °F 53% 30.29 in 10.0 mi NNW 8.1 mph - N/A   Clear
11:55 AM 44.6 °F 39.2 °F 28.4 °F 53% 30.28 in 10.0 mi NNW 10.4 mph - N/A   Clear
12:15 PM 46.4 °F 42.4 °F 28.4 °F 50% 30.28 in 10.0 mi North 8.1 mph - N/A   Scattered Clouds
12:35 PM 48.2 °F - 30.2 °F 50% 30.28 in 10.0 mi NNW 6.9 mph - N/A   Partly Cloudy
12:55 PM 48.2 °F - 28.4 °F 46% 30.28 in 10.0 mi NW 9.2 mph - N/A   Mostly Cloudy
1:15 PM 48.2 °F - 28.4 °F 46% 30.28 in 10.0 mi North 10.4 mph - N/A   Mostly Cloudy
1:35 PM 48.2 °F - 26.6 °F 43% - 10.0 mi North 9.2 mph - N/A   Partly Cloudy
1:55 PM 48.2 °F - 26.6 °F 43% 30.28 in 10.0 mi North 9.2 mph - N/A   Clear
2:15 PM 48.2 °F - 24.8 °F 40% 30.27 in 10.0 mi North 8.1 mph - N/A   Partly Cloudy
2:35 PM 48.2 °F - 26.6 °F 43% 30.27 in 10.0 mi North 8.1 mph - N/A   Mostly Cloudy
2:55 PM 46.4 °F 42.9 °F 28.4 °F 50% 30.28 in 10.0 mi NW 6.9 mph - N/A   Overcast
3:15 PM 46.4 °F 43.5 °F 28.4 °F 50% 30.28 in 10.0 mi NNW 5.8 mph - N/A   Mostly Cloudy
3:35 PM 46.4 °F 45.2 °F 28.4 °F 50% 30.29 in 10.0 mi WNW 3.5 mph - N/A   Clear
3:55 PM 46.4 °F - 28.4 °F 50% 30.29 in 10.0 mi Calm Calm - N/A   Clear
4:15 PM 46.4 °F - 28.4 °F 50% 30.30 in 10.0 mi Calm Calm - N/A   Clear
4:35 PM 46.4 °F - 28.4 °F 50% 30.30 in 10.0 mi Calm Calm - N/A   Clear
4:55 PM 42.8 °F - 28.4 °F 57% 30.31 in 10.0 mi Calm Calm - N/A   Clear
5:15 PM 41.0 °F - 28.4 °F 61% 30.32 in 10.0 mi Calm Calm - N/A   Clear
5:35 PM 39.2 °F - 30.2 °F 70% 30.33 in 10.0 mi Calm Calm - N/A   Clear
5:55 PM 39.2 °F 35.9 °F 28.4 °F 65% 30.34 in 10.0 mi North 4.6 mph - N/A   Clear
6:15 PM 41.0 °F 37.1 °F 28.4 °F 61% 30.35 in 10.0 mi North 5.8 mph - N/A   Clear
6:35 PM 41.0 °F 39.0 °F 26.6 °F 57% 30.36 in 10.0 mi North 3.5 mph - N/A   Clear
6:55 PM 39.2 °F 35.9 °F 26.6 °F 61% 30.36 in 10.0 mi North 4.6 mph - N/A   Clear
7:15 PM 39.2 °F - 26.6 °F 61% 30.37 in 10.0 mi Calm Calm - N/A   Clear
7:35 PM 37.4 °F 34.9 °F 26.6 °F 65% 30.37 in 10.0 mi North 3.5 mph - N/A   Clear
7:55 PM 37.4 °F 33.8 °F 26.6 °F 65% 30.37 in - North 4.6 mph - N/A   Clear
8:15 PM 37.4 °F 34.9 °F 26.6 °F 65% 30.38 in - North 3.5 mph - N/A   Clear
8:35 PM 35.6 °F 31.7 °F 26.6 °F 70% 30.38 in - North 4.6 mph - N/A   Clear
8:55 PM 35.6 °F - 26.6 °F 70% 30.39 in - Calm Calm - N/A   Clear
9:15 PM 35.6 °F - 26.6 °F 70% 30.39 in - Calm Calm - N/A   Clear
9:35 PM 33.8 °F - 26.6 °F 75% 30.40 in - Calm Calm - N/A   Clear
9:55 PM 33.8 °F - 26.6 °F 75% 30.40 in - Calm Calm - N/A   Clear
10:15 PM 33.8 °F - 26.6 °F 75% 30.40 in - Calm Calm - N/A   Clear
10:55 PM 33.8 °F 29.6 °F 26.6 °F 75% 30.40 in - North 4.6 mph - N/A   Clear
11:15 PM 35.6 °F 32.8 °F 26.6 °F 70% 30.40 in - North 3.5 mph - N/A   Clear
11:35 PM 33.8 °F 29.6 °F 26.6 °F 75% 30.40 in - North 4.6 mph - N/A   Clear
11:55 PM 33.8 °F 30.8 °F 26.6 °F 75% 30.40 in - North 3.5 mph - N/A   Clear